This is the latest recevied weather packets stored in our database for station/object HP1MRA-15. If no packets are shown the sender has not sent any weather packets the latest 10 day(s).
| Time | Temp. | Humidity | Pressure | Rain* | Wind** | Luminosity | Snow |
|---|---|---|---|---|---|---|---|
| 1787927994 | 27.78° C | 82% | 1003.1 hPa | 2.03 mm | - | - | - |
| 1787927697 | 28.33° C | 83% | 1003.4 hPa | 2.03 mm | - | - | - |
| 1787927397 | 28.33° C | 83% | 1003.5 hPa | 1.78 mm | - | - | - |
| 1787927097 | 28.89° C | 83% | 1003.4 hPa | 1.78 mm | - | - | - |
| 1787927094 | - | - | 1003.4 hPa | 1.78 mm | - | - | - |
| 1787926796 | 28.89° C | 81% | 1003.1 hPa | 1.78 mm | - | - | - |
| 1787926497 | 29.44° C | 81% | 1003 hPa | 1.78 mm | - | - | - |
| 1787926194 | 28.89° C | 82% | 1003 hPa | 1.78 mm | - | - | - |
| 1787925897 | 28.89° C | 80% | 1002.9 hPa | 1.78 mm | - | - | - |
| 1787925596 | 28.89° C | 81% | 1002.8 hPa | 1.78 mm | - | - | - |
| 1787925296 | 28.89° C | 81% | 1002.9 hPa | 0 mm | - | - | - |
| 1787925294 | 28.89° C | 81% | 1002.9 hPa | 0 mm | - | - | - |
| 1787924996 | 28.89° C | 81% | 1002.9 hPa | 0 mm | - | - | - |
| 1787924696 | 28.89° C | 81% | 1002.7 hPa | 0 mm | - | - | - |
| 1787924397 | 28.89° C | 81% | 1002.6 hPa | 0 mm | - | - | - |
| 1787924394 | 28.89° C | 81% | 1002.5 hPa | 0 mm | - | - | - |
| 1787924097 | 28.89° C | 81% | 1002.6 hPa | 0 mm | - | - | - |
| 1787923797 | 28.33° C | 81% | 1002.5 hPa | 0 mm | - | - | - |
| 1787923496 | 28.33° C | 81% | 1002.4 hPa | 0 mm | - | - | - |
| 1787923493 | 28.33° C | 81% | 1002.5 hPa | 0 mm | - | - | - |
| 1787923196 | 28.33° C | 81% | 1002.2 hPa | 0 mm | - | - | - |
| 1787922896 | 28.33° C | 81% | 1002.1 hPa | 0 mm | - | - | - |
| 1787922596 | 28.33° C | 80% | 1002 hPa | 0 mm | - | - | - |
| 1787922594 | 28.33° C | 80% | 1001.9 hPa | 0 mm | - | - | - |
| 1787922296 | 28.33° C | 80% | 1001.8 hPa | 0 mm | - | - | - |
* Rain latest hour (hover to see other rain measurements)
** Current wind speed in m/s (hover to see current wind gust speed)